User: anonymous   Login
Location: Unspecified
(0.0000°N, 0.0000°E)
Time: 05:33:35
(UTC+02:00)
Language:

Cosmos 494 Rocket - Orbit

View from above orbital plane
View from above orbital plane
View from above satellite
View from above satellite

Ground track
Ground track

The orbit data is extracted from the following two-line orbital elements,

1  6061U 72043B   17173.54682774 -.00000023 +00000-0 +10749-5 0  9993
2  6061 074.0548 170.2473 0021174 297.7178 062.1830 14.40499672358836
Epoch (UTC): 22 June 2017 13:07:25
Eccentricity: 0.0021174
inclination: 74.0548°
perigee height: 742 km
apogee height: 772 km
right ascension of ascending node: 170.2473°
argument of perigee: 297.7178°
revolutions per day: 14.40499672
mean anomaly at epoch: 62.1830°
orbit number at epoch: 35883

The dashed part of the orbit path shows where the satellite is in the earth's shadow,  

DLR